www.pogodaiklimat.ru
ПОГОДА в Хобарте
Время
(UTC), дата
01 5.12
02 5.12
03 5.12
04 5.12
05 5.12
06 5.12
07 5.12
08 5.12
09 5.12
10 5.12
11 5.12
12 5.12
13 5.12
14 5.12
15 5.12
16 5.12
17 5.12
18 5.12
19 5.12
20 5.12
21 5.12
22 5.12
23 5.12
00 6.12
01 6.12
02 6.12
03 6.12
04 6.12
05 6.12
06 6.12
07 6.12
08 6.12
09 6.12
10 6.12
11 6.12
12 6.12
13 6.12
14 6.12
15 6.12
16 6.12
17 6.12
18 6.12
19 6.12
20 6.12
21 6.12
22 6.12
23 6.12
00 7.12
01 7.12
02 7.12
03 7.12
04 7.12
05 7.12
06 7.12
07 7.12
08 7.12
09 7.12
10 7.12
11 7.12
12 7.12
13 7.12
14 7.12
15 7.12
16 7.12
17 7.12
18 7.12
19 7.12
20 7.12
21 7.12
22 7.12
23 7.12
00 8.12
01 8.12
02 8.12
03 8.12
04 8.12
05 8.12
06 8.12
07 8.12
08 8.12
09 8.12
10 8.12
11 8.12
12 8.12
13 8.12
14 8.12
15 8.12
16 8.12
17 8.12
18 8.12
19 8.12
20 8.12
21 8.12
22 8.12
23 8.12
00 9.12
01 9.12
02 9.12
03 9.12
04 9.12
05 9.12
06 9.12
07 9.12
08 9.12
09 9.12
10 9.12
11 9.12
12 9.12
13 9.12
14 9.12
15 9.12
16 9.12
17 9.12
18 9.12
19 9.12
20 9.12
21 9.12
22 9.12
23 9.12
00 10.12
01 10.12
02 10.12
03 10.12
04 10.12
05 10.12
06 10.12
07 10.12
08 10.12
09 10.12
10 10.12
11 10.12
12 10.12
13 10.12
14 10.12
15 10.12
16 10.12
17 10.12
18 10.12
19 10.12
20 10.12
21 10.12
22 10.12
23 10.12
00 11.12
01 11.12
02 11.12
03 11.12
04 11.12
05 11.12
06 11.12
07 11.12
08 11.12
09 11.12
10 11.12
11 11.12
12 11.12
13 11.12
14 11.12
15 11.12
16 11.12
17 11.12
18 11.12
19 11.12
20 11.12
21 11.12
22 11.12
23 11.12
00 12.12
01 12.12
Ветер
(напр.,м/с)
Видим. Явления Облачность Т
(С)
Тd
(С)
f
(%)
Тe
(С)
Тes
(С)
Комфортность P
(гПа)
Po
(гПа)
Тmin
(С)
Tmax
(С)
R
(мм)
R24
(мм)
S
(см)
СЗ 12 40 км слаб. ливневой дождь 9/9 1000 м
[Cu Sc Ac trans]
+17.7 +3.7 39 +16 +16 тепло 993.6 990.4 +11.6
З 9 н/о н/о +17.5 +2.5 37 +16 +16 тепло 993.5 990.3
З 9 н/о н/о +17.0 +2.9 39 +16 +16 по сезону 993.0 989.8
З 5 35 км осадки на расстоянии 9/9 1500 м
[Cu Sc]
+17.1 +3.1 39 +16 +17 по сезону 992.9 989.7
З 8 н/о н/о +17.0 +3.3 40 +16 +16 по сезону 992.8 989.6
З 8 н/о н/о +16.8 +3.8 42 +16 +16 по сезону 993.3 990.1
З 10 35 км осадки на расстоянии 9/9 1000 м
[Cu med, cong]
+15.9 +3.1 42 +14 +14 прохладно 993.9 990.7
СЗ 7 н/о н/о +15.2 +3.8 46 +14 +14 прохладно 994.6 991.4
З 9 н/о н/о +14.5 +3.3 47 +12 +12 прохладно 995.8 992.6
З 8 35 км 9/9 1000 м
[Cu Sc]
+13.6 +3.2 49 +11 +11 прохладно 996.4 993.2
З 12 н/о н/о +12.7 +1.9 48 +9 +9 прохладно 996.9 993.7
З 14 н/о н/о +12.3 +1.6 48 +8 +8 прохладно 996.7 993.5
З 10 н/о 10/10 1000 м
[]
+11.6 +1.8 51 +8 +8 прохладно 996.4 993.2 +19.6
З 11 н/о н/о +11.8 +1.2 48 +8 +8 по сезону 995.6 992.4
СЗ 10 н/о н/о +11.3 +2.3 54 +8 +8 прохладно 995.2 992.0
СЗ 9 н/о 10/10 1000 м
[]
+10.4 +2.8 59 +7 +7 по сезону 995.2 992.0
СЗ 8 н/о н/о +10.6 +2.8 58 +7 +7 по сезону 995.1 991.9
СЗ 9 н/о н/о +10.6 +3.1 60 +7 +7 прохладно 994.7 991.5
З 9 40 км 1/1 1000 м
[Cu Sc]
+10.8 +2.8 58 +7 +7 по сезону 994.5 991.3
СЗ 8 н/о н/о +12.0 +1.8 50 +9 +9 тепло 994.8 991.6
СЗ 8 н/о н/о +12.0 +3.5 56 +9 +9 прохладно 995.6 992.4
З 11 40 км осадки на расстоянии {ливн. осадки} 6/4 600 м
[Cu Sc Ci sp]
+12.6 +2.4 50 +9 +9 прохладно 995.8 992.6 0.0
СЗ 10 н/о н/о +12.9 +2.2 48 +10 +10 по сезону 996.0 992.8
СЗ 10 н/о н/о +13.5 +3.3 50 +11 +11 прохладно 995.7 992.5
З 11 40 км в посл. час ливневой дождь 5/5 600 м
[Cu Sc Ci sp]
+15.3 +2.7 43 +13 +13 по сезону 995.5 992.3 +10.4
З 11 н/о н/о +16.9 +2.1 37 +15 +15 тепло 995.7 992.5
З 10 н/о н/о +16.1 +1.2 36 +14 +14 по сезону 995.7 992.5
З 13 20 км в посл. час ливневой дождь 9/8 1000 м
[Cu Sc Ac trans]
+16.0 +1.0 36 +14 +14 по сезону 996.0 992.8
З 13 н/о н/о +14.8 +1.7 41 +12 +12 по сезону 996.5 993.3
З 10 н/о н/о +13.2 +3.5 52 +10 +10 холодно 998.0 994.9
З 5 22 км слаб. ливневой дождь 9/9 600 м
[Cu Sc Ac trans]
+12.0 +4.3 59 +10 +10 холодно 998.7 995.5
З 8 н/о н/о +12.0 +2.7 53 +9 +9 прохладно 999.7 996.5
З 9 н/о н/о +11.7 +1.0 48 +8 +8 холодно 1000.2 997.0
З 7 30 км в посл. час ливневой дождь 4/4 1000 м
[Cu Sc]
+11.1 -0.5 45 +8 +8 прохладно 1001.1 997.9
СЗ 4 н/о н/о +10.7 -0.5 46 +9 +9 по сезону 1002.7 999.5
СЗ 6 н/о н/о +10.7 +0.5 49 +8 +8 прохладно 1002.9 999.7
СЗ 7 н/о 1/1 1500 м
[]
+10.3 +0.9 52 +7 +7 по сезону 1003.0 999.8 +17.6
З 9 н/о н/о +10.3 +0.9 52 +7 +7 по сезону 1002.6 999.4
З 8 н/о н/о +10.2 +1.7 56 +7 +7 прохладно 1002.3 999.1
З 9 н/о 3/0
[]
+10.7 +0.8 50 +7 +7 по сезону 1001.8 998.6
З 10 н/о н/о +10.9 +1.4 52 +7 +7 по сезону 1001.8 998.6
З 10 н/о н/о +11.5 +0.4 46 +8 +8 по сезону 1002.1 998.9
З 10 40 км 9/4 600 м
[Sc Ac trans Ci sp]
+11.7 +1.0 48 +8 +8 по сезону 1002.5 999.3
З 9 н/о н/о +11.8 +1.5 49 +9 +9 тепло 1002.9 999.7
СЗ 10 н/о н/о +11.7 +2.5 53 +8 +8 прохладно 1003.7 1000.5
СЗ 10 40 км 9/4 600 м
[Sc Ac trans Ci sp]
+13.0 +3.4 52 +10 +10 по сезону 1004.1 1000.9 0.4
СЗ 9 н/о н/о +14.6 +3.7 48 +12 +12 тепло 1004.2 1001.0
З 8 н/о н/о +15.0 +4.8 50 +13 +13 по сезону 1004.6 1001.4
З 8 20 км слаб. ливневой дождь 9/9 600 м
[Cu Sc]
+15.0 +6.1 55 +13 +13 тепло 1005.2 1002.0 +10.2
З 8 н/о н/о +15.2 +7.6 60 +13 +13 тепло 1005.4 1002.2
ЮЗ 7 н/о н/о +15.9 +7.3 57 +15 +15 тепло 1005.8 1002.6
ЮЗ 7 20 км в посл. час ливневой дождь 9/9 600 м
[Cu Sc]
+14.8 +9.4 70 +13 +13 по сезону 1006.5 1003.3
ЮЗ 9 н/о н/о +15.5 +8.9 65 +14 +14 тепло 1007.2 1004.0
ЮЗ 10 н/о н/о +17.4 +6.0 47 +16 +16 тепло 1007.5 1004.3
ЮЗ 9 40 км осадки на расстоянии {ливн. осадки} 8/8 600 м
[Cu Sc]
+17.0 +4.8 44 +16 +16 тепло 1008.5 1005.3
ЮЗ 8 н/о н/о +15.3 +5.2 51 +13 +13 тепло 1009.7 1006.5
ЮЗ 7 н/о н/о +14.3 +5.2 54 +12 +12 по сезону 1011.0 1007.7
ЮЗ 6 40 км 4/4 1000 м
[Sc]
+13.7 +4.6 54 +12 +12 тепло 1012.0 1008.7
ЮЗ 6 н/о н/о +12.9 +4.6 57 +11 +11 тепло 1012.7 1009.4
Ю 5 н/о н/о +12.6 +4.8 59 +11 +11 по сезону 1013.4 1010.1
Ю 4 н/о 10/10 1000 м
[]
+12.8 +5.3 60 +11 +11 тепло 1014.1 1010.8 +17.8
ЮЗ 5 н/о н/о +12.8 +4.5 57 +11 +11 тепло 1014.6 1011.3
З 3 н/о н/о +11.5 +4.7 63 +10 +10 по сезону 1015.2 1011.9
ЮЗ 3 н/о 9/9 1000 м
[]
+11.7 +4.7 62 +10 +10 тепло 1015.7 1012.4
СЗ 3 н/о н/о +10.3 +4.7 68 +9 +9 тепло 1015.6 1012.3
СВ 2 н/о н/о +6.9 +4.4 84 +5 +5 по сезону 1016.3 1013.0
СЗ 3 40 км 6/6 600 м
[Sc]
+9.6 +5.7 77 +7 +7 по сезону 1017.1 1013.8
СЗ 2 н/о н/о +10.7 +6.4 75 +9 +9 тепло 1018.2 1014.9
СЗ 3 н/о н/о +14.4 +5.2 54 +14 +14 тепло 1018.3 1015.0
З 4 40 км 8/8 1000 м
[Sc Ci fib]
+15.2 +5.0 51 +14 +16 тепло 1019.3 1016.0 1.0
ЮВ 4 н/о н/о +16.5 +6.0 50 +16 +16 тепло 1018.7 1015.4
ЮВ 4 н/о н/о +15.5 +6.4 55 +15 +15 тепло 1018.7 1015.4
В 3 40 км 8/1 1000 м
[Cu hum Ci sp]
+17.0 +6.1 49 +17 +30 опасность
простуды
1018.6 1015.3 +7.0
ЮВ 6 н/о н/о +17.6 +6.7 49 +17 +17 тепло 1018.5 1015.2
ЮВ 7 н/о н/о +17.7 +6.8 49 +17 +17 тепло 1018.2 1014.9
ЮВ 7 40 км 9/1 600 м
[Cu Sc Cs]
+17.0 +8.4 57 +16 +20 тепло 1018.5 1015.2
Ю 6 н/о н/о +17.7 +8.8 56 +17 +17 тепло 1018.2 1014.9
ЮВ 5 н/о н/о +18.7 +7.9 49 +19 +19 тепло 1018.0 1014.7
ЮВ 5 40 км 8/1 600 м
[Sc Cc]
+17.1 +9.0 59 +17 +19 тепло 1017.6 1014.3
СВ 3 н/о н/о +17.5 +7.6 52 +18 +18 тепло 1018.0 1014.7
С 4 н/о н/о +16.3 +7.5 56 +16 +16 тепло 1018.0 1014.7
СВ 4 30 км мгла 1/0
[Ac trans Ci fib]
+15.2 +8.0 62 +14 +14 тепло 1018.2 1014.9
СВ 4 н/о н/о +14.8 +8.4 65 +14 +14 тепло 1018.6 1015.3
СВ 3 н/о н/о +14.4 +8.9 70 +14 +14 тепло 1017.6 1014.3
С 4 н/о 1/0
[]
+13.6 +8.6 72 +12 +12 тепло 1016.8 1013.5 +20.1
С 3 н/о н/о +13.3 +8.5 73 +12 +12 тепло 1016.3 1013.0
СЗ 2 н/о н/о +11.9 +8.5 80 +11 +11 тепло 1015.7 1012.4
С 5 н/о 9/0
[]
+14.8 +7.3 61 +14 +14 тепло 1014.7 1011.4
С 4 н/о н/о +15.1 +7.7 61 +14 +14 тепло 1014.5 1011.2
С 5 н/о н/о +14.7 +7.6 62 +13 +13 тепло 1014.2 1010.9
С 6 30 км мгла 9/0
[Ac As Ci sp]
+15.5 +7.7 60 +14 +14 тепло 1014.0 1010.7
С 5 н/о н/о +15.9 +7.7 58 +15 +15 тепло 1013.6 1010.3
С 4 н/о н/о +17.3 +6.1 48 +17 +17 тепло 1013.1 1009.8
СЗ 5 25 км дым 9/0
[Ac trans Ci sp]
+18.6 +5.8 43 +19 +21 тепло 1012.8 1009.5
С 6 н/о н/о +20.5 +5.3 37 +21 +21 комфорт 1012.2 1008.9
С 6 н/о н/о +22.6 +4.9 32 +23 +23 комфорт 1011.4 1008.1
С 6 25 км дым 9/0
[Ac trans Cs]
+24.1 +4.7 28 +24 +29 комфорт 1011.2 1007.9 +11.5
С 5 н/о н/о +25.2 +5.1 27 +25 +25 комфорт 1010.5 1007.2
С 5 н/о н/о +25.8 +5.5 27 +25 +25 комфорт 1010.0 1006.7
С 4 25 км дым 9/0
[Ac As Cs]
+29.1 +5.0 22 +28 +34 жарко 1007.8 1004.6
С 6 н/о н/о +30.3 +4.8 20 +28 +28 жарко 1006.2 1003.0
С 4 н/о н/о +28.0 +6.2 25 +27 +27 жарко 1005.9 1002.7
С 4 25 км осадки на расстоянии 9/1
[Cu med, cong Ac cast Cs]
+28.5 +6.8 25 +28 +29 жарко 1005.6 1002.4
Ю 7 н/о н/о +17.8 +10.3 61 +17 +17 тепло 1006.4 1003.2
Ю 5 н/о н/о +16.6 +10.8 69 +16 +16 тепло 1008.6 1005.4
Ю 3 15 км мгла 9/0
[Ac cast Ci sp]
+16.1 +10.7 70 +16 +16 тепло 1009.3 1006.1
Ю 2 н/о н/о +15.0 +11.1 77 +15 +15 тепло 1010.0 1006.7
Ю 3 н/о н/о +14.4 +11.6 83 +13 +13 тепло 1010.2 1006.9
Ю 4 9000 м н/о +14.0 +12.0 88 +13 +13 тепло 1011.3 1008.0 +30.8
Ю 3 н/о н/о +13.5 +11.4 87 +12 +12 тепло 1011.7 1008.4
ЮВ 3 н/о н/о +13.9 +12.0 88 +13 +13 тепло 1012.3 1009.0
ЮВ 3 8000 м 10/10 600 м
[]
+13.7 +11.6 87 +13 +13 тепло 1012.9 1009.6
штиль 0 н/о н/о +13.1 +11.4 89 +13 +13 тепло 1012.4 1009.1
Ю 6 н/о н/о +12.3 +9.5 83 +10 +10 тепло 1013.1 1009.8
Ю 5 40 км 9/9 300 м
[Sc Ac trans]
+12.2 +8.4 78 +10 +10 тепло 1013.8 1010.5
Ю 5 н/о н/о +12.6 +7.9 73 +11 +11 тепло 1014.6 1011.3
Ю 6 н/о н/о +13.6 +6.0 60 +12 +12 тепло 1015.2 1011.9
ЮЗ 9 30 км мгла 9/4 600 м
[Sc Ci sp]
+14.9 +2.3 43 +13 +13 тепло 1015.8 1012.5
Ю 8 н/о н/о +16.1 +2.2 39 +15 +15 тепло 1016.2 1012.9
Ю 8 н/о н/о +16.1 +2.2 39 +15 +15 по сезону 1016.5 1013.2
Ю 6 35 км 8/1 1500 м
[Sc Ci sp]
+17.8 +1.8 34 +17 +22 по сезону 1016.5 1013.2 +12.1
ЮВ 7 н/о н/о +16.8 +5.3 47 +16 +16 по сезону 1016.5 1013.2
ЮВ 8 н/о н/о +17.0 +5.3 46 +16 +16 по сезону 1016.8 1013.5
ЮВ 8 35 км 1/1 1500 м
[Sc Ci sp]
+16.3 +5.7 49 +15 +18 прохладно 1016.8 1013.5
Ю 9 н/о н/о +16.0 +6.6 54 +14 +14 прохладно 1016.8 1013.5
Ю 9 н/о н/о +15.5 +6.9 57 +14 +14 прохладно 1016.9 1013.6
Ю 8 30 км мгла 1/1 1000 м
[Sc]
+15.5 +8.1 61 +14 +15 прохладно 1017.1 1013.8
Ю 6 н/о н/о +15.6 +8.3 62 +14 +14 прохладно 1017.6 1014.3
Ю 5 н/о н/о +14.9 +9.5 70 +14 +14 по сезону 1018.2 1014.9
ЮВ 3 20 км мгла 4/4 600 м
[Sc]
+14.0 +8.8 71 +13 +13 по сезону 1018.8 1015.5
С 5 н/о н/о +13.2 +7.0 66 +11 +11 прохладно 1019.4 1016.1
С 4 н/о н/о +12.7 +6.9 68 +11 +11 по сезону 1019.7 1016.4
С 4 н/о н/о +12.1 +7.1 71 +10 +10 по сезону 1019.5 1016.2 +18.4
С 3 н/о н/о +10.9 +6.9 76 +9 +9 по сезону 1019.0 1015.7
С 1 н/о н/о +11.1 +7.1 76 +12 +12 по сезону 1018.7 1015.4
СЗ 3 н/о н/о +10.7 +7.6 81 +9 +9 по сезону 1018.3 1015.0
З 1 н/о н/о +9.9 +7.1 83 +10 +10 тепло 1017.8 1014.5
СЗ 4 н/о н/о +10.2 +7.3 82 +8 +8 по сезону 1017.8 1014.5
СЗ 3 10 км дым 9/0
[Ac trans]
+10.6 +7.5 81 +9 +9 по сезону 1017.7 1014.4
СЗ 4 н/о н/о +11.6 +7.5 76 +9 +9 тепло 1017.9 1014.6
С 4 н/о н/о +13.5 +7.1 65 +12 +12 по сезону 1017.8 1014.5
СЗ 3 24 км дым 9/6 2000 м
[Sc Ac lent Ci sp]
+16.0 +5.8 51 +16 +17 тепло 1017.6 1014.3
С 4 н/о н/о +17.1 +5.2 45 +17 +17 тепло 1017.1 1013.8
СЗ 5 н/о н/о +18.5 +5.3 42 +18 +18 тепло 1016.7 1013.4
СЗ 6 35 км 9/1 1500 м
[Sc Ac lent Ci sp]
+21.1 +5.0 35 +22 +26 комфорт 1015.8 1012.5 +9.4
ЮВ 5 н/о н/о +20.0 +5.6 39 +21 +21 комфорт 1015.1 1011.8
ЮВ 6 н/о н/о +20.1 +8.4 47 +21 +21 комфорт 1014.4 1011.1
Ю 6 30 км осадки на расстоянии 10/8 600 м
[Cu Sc Ac As]
+19.9 +6.3 41 +20 +21 тепло 1014.4 1011.1
ЮВ 5 н/о н/о +18.5 +7.9 50 +19 +19 тепло 1014.2 1010.9
ЮВ 6 н/о н/о +18.3 +7.2 48 +18 +18 по сезону 1013.7 1010.4
Ю 5 30 км слаб. ливневой дождь 9/9 1000 м
[Cu Sc]
+18.2 +8.8 54 +18 +18 по сезону 1013.6 1010.3
Ю 4 н/о н/о +17.0 +9.1 60 +17 +17 по сезону 1013.8 1010.5
Ю 5 н/о н/о +16.0 +10.5 70 +15 +15 по сезону 1014.2 1010.9
Ю 4 20 км мгла 9/4 1000 м
[Cu Sc Ac As Ci sp]
+14.6 +10.2 75 +14 +14 по сезону 1014.2 1010.9
Ю 2 н/о н/о +13.5 +10.0 79 +13 +13 по сезону 1014.2 1010.9
З 3 н/о н/о +12.9 +9.8 81 +12 +12 по сезону 1013.5 1010.2
С 2 н/о 4/0
[]
+13.2 +10.3 83 +12 +12 по сезону 1012.7 1009.4 +22.7
СЗ 2 н/о н/о +13.7 +8.1 69 +14 +14 тепло 1011.9 1008.6
СЗ 4 н/о н/о +14.7 +6.9 59 +14 +14 тепло 1010.7 1007.4
СЗ 4 н/о 10/0
[]
+13.8 +7.3 65 +13 +13 тепло 1009.3 1006.1
СЗ 4 н/о н/о +13.8 +7.3 65 +13 +13 тепло 1008.8 1005.6
СЗ 4 н/о н/о +13.7 +7.6 67 +12 +12 по сезону 1008.7 1005.5
З 7 40 км 9/4 600 м
[Sc Ac trans Ci sp]
+14.2 +5.8 57 +12 +12 тепло 1008.7 1005.5
З 6 н/о н/о +14.3 +2.6 45 +13 +13 тепло 1009.1 1005.9
СЗ 6 н/о н/о +14.4 +4.2 50 +13 +13 по сезону 1009.1 1005.9
З 7 30 км осадки на расстоянии 9/9 600 м
[Cu Sc]
+14.9 +3.5 46 +13 +13 по сезону 1009.4 1006.2 0.0
ЮЗ 8 н/о н/о +14.2 +5.8 57 +12 +12 по сезону 1010.8 1007.5
ЮЗ 10 н/о н/о +15.3 +1.0 38 +13 +13 прохладно 1010.7 1007.4
З 9 30 км осадки на расстоянии {ливн. осадки} 5/5 1000 м
[Cu Sc]
+14.9 0.0 36 +13 +14 прохладно 1010.8 1007.5 +11.6
Местоположение метеостанции Хобарт (Тасмания, Австралия): широта -42.83 долгота 147.50 высота над уровнем моря 27 м.
В архиве по умолчанию представлена погода в Хобарте за последнюю неделю. Архивные данные за месяц целиком и за предыдущие месяцы, начиная с января 2011 года, Вы можете получить, выбрав интересующий диапазон дат из раскрывающегося списка и нажав кнопку "Найти!".
*Определитесь, кто Вы:
Внимание! Время в таблицах - всемирное. Для получения местного времени необходимо прибавить поправку, которая равна 10 ч.
Смотрите также архив погоды в соседних городах и на ближайших метеорологических станциях:
Партнеры нашего сайта:      
Пояснения к столбцам:
  • Ветер - указаны скорость ветра в м/с - средняя за 10 мин, порывы в срок и между сроками (в фигурных скобках) и направление, откуда дует ветер: С - северный,
  • СВ - северо-восточный, В - восточный, ЮВ - юго-восточный, Ю - южный, ЮЗ - юго-западный, З - западный, СЗ - северо-западный.
  • Видимость - горизонтальная дальность видимости в метрах или километрах. При видимости от 1 до 10 км при отсутствии осадков обычно наблюдается дымка, при ухудшении видимости до 1 км и менее - туман. В сухую погоду видимость может ухудшаться дымом, пылью или мглою.
  • Явления - указаны атмосферные явления, наблюдавшиеся в срок или в последний час перед сроком; фигурными скобками обозначены явления, наблюдавшиеся между сроками (за 1-3 часа до срока); квадратными скобками обозначены град или гололедные отложения с указанием их диаметра в мм.
  • Облачность - указаны через наклонную черту общая и нижняя облачность в баллах и высота нижней границы облаков в метрах; квадратными скобками обозначены формы облаков: Ci - перистые, Cs - перисто-слоистые, Cc - перисто-кучевые, Ac - высококучевые, As - высокослоистые, Sc - слоисто-кучевые, Ns - слоисто-дождевые, Cu - кучевые, Cb - кучево-дождевые. Подробнее классификацию облаков см. в Атласе облаков (PDF).
  • T - Температура воздуха - температура, измеренная на высоте 2 м над землей.
  • Td - Температура точки росы - температура, при понижении до которой содержащийся в воздухе водяной пар достигнет насыщения.
  • f - Относительная влажность воздуха - влажноcть воздуха, измеренная на высоте 2 м над землей.
  • Te - Эффективная температура - температура, которую ощущает одетый по сезону человек в тени. Характеристика душности погоды. При расчете учитывается влияние влажности воздуха и скорости ветра на теплоощущения человека.
  • Tes - Эффективная температура на солнце - температура, которую ощущает человек, с поправкой на солнечный нагрев. Характеристика знойности погоды. Зависит от высоты солнца над горизонтом, облачности и скорости ветра. Ночью, в пасмурную погоду, а также при ветре 12 м/с и более поправка равна нулю.
  • P - Атмосферное давление - приведенное к уровню моря атмосферное давление.
  • Po - Атмосферное давление - измеренное на уровне метеостанции атмосферное давление.
  • Tmin - Минимальная температура - минимум температуры воздуха на высоте 2 м над землей.
  • Tmax - Максимальная температура - максимум температуры воздуха на высоте 2 м над землей.
  • R - Количество осадков - Количество выпавших осадков за период времени, мм. При наведении курсора мыши на число - период времени, за который выпало указанное количество осадков.
  • R24 - Количество осадков - Количество выпавших осадков за 24 часа, мм.
  • S - Снежный покров - Высота снежного покрова, см. При наведении курсора мыши на число - состояние снежного покрова и степень покрытия местности в баллах.